Location: Unspecified
(29.9680°N, 0.0000°E)
Time: 18:24:06
(UTC+00:00)

A-11 Canister half - Pass Details

Date: 18 June 2019
Orbit: 1526 x 1682 km, 47.3° (Epoch: 24 August)

Event Time Altitude Azimuth Distance (km) Brightness Sun altitude
Rises 12:31:40 0° 308° (NW) 4,684 11.6 80.5°
Reaches altitude 10° 12:34:41 10° 307° (NW) 3,708 11.2 80.0°
Maximum altitude 12:44:01 76° 224° (SW) 1,602 12.6 78.4°
Drops below altitude 10° 12:53:37 10° 140° (SE) 3,801 11.2 76.6°
Sets 12:56:45 0° 139° (SE) 4,806 11.6 76.0°
